DELTA 1 DEB, 7036

Orbit data source: Space-Track

DELTA 1 DEB, 7036 is space debris in SSO originally from a launch on Tue, 06 Nov 1973 UTC launched from the Air Force Western Test Range (AFWTR). Debris objects in space refer to the collection of defunct objects orbiting the Earth. Examples of debris include non-operational satellites, rocket bodies, and fragments generated from explosions, collisions, or faulty payload assembly.

Loading next visibility...
Identifier
7036, 1973-086AC
Orbit
SSO
Country
Flag of USUS
Related business
Manufacturer
Unknown
Mission
Spacecraft
Bus & Motor
Unknown
Mass
Unknown
Launch date (UTC)
1973-11-06 (52 years ago)
Launch vehicle
Unknown
Launch site
Air Force Western Test Range (AFWTR)
Object type
Payload
Rocket body
Debris
Shape & HBR
Unknown
Radar Cross Section
Medium (>0.1 m² and <1 m²)

Expand to show TLE details & history
Last TLE update: 12 hours ago

TLE from 12 hours ago
0 DELTA 1 DEB
1 07036U 73086AC  25259.42410619  .00000561  00000-0  36916-2 0  9999
2 07036 101.5674 234.2208 0053402  21.4084 133.5770 12.55251401362784
Epoch: 2025-09-16T10:10Z
TLE epoch observation values (Epoch: 2025-09-16T10:10:42.774Z)
Latitude
24.06647°
Longitude
-88.85291°
Altitude
1,474.139 km
Speed
7.115 km/s
True Right ascension
03h 57m 45s
True Declination
23° 57' 01"
Sunlit
Object was in daylight at epoch
Visualization orbit readout
Latitude
Unknown
Longitude
Unknown
Altitude
Unknown
Speed
Unknown
Apparent Right ascension
Unknown
Apparent Declination
Unknown
Sunlit
N/A
Visualization observer readout
Local Sidereal Time
14:29:05
Azimuth
Unknown
Elevation
Unknown
Doppler factor
Unknown
Orbital elements
Apogee altitude
1,481.887 km
Perigee altitude
1,398.384 km
Semi-major axis
7,818.273 km
Eccentricity
0.00534
Inclination
101.5674°
RAAN
234.2208°
Arg. of periapsis
21.4084°
True anomaly
134.01829°
Mean anomaly
133.577°
Eccentric anomaly
133.79785°
Mean motion
3.13962 °/min
Orbital period
114.66 mins
BSTAR
0.0036916
Loading maneuver chart data...
Computing Atmospheric mass density...
Loading historical data...
Loading historical data...
Loading historical data...
Loading historical data...
Loading historical data...
Loading historical data...
Loading historical data...

Documentation

Showing up to 5 results
|